User: anonymous
Location: Observatorio Las Palmas
(29.0667°N, 110.9333°W)
Time: 10:23:11
(UTC-07:00)
Language:

Skynet4D Del rocket - Orbit

View from above orbital plane
View from above orbital plane
View from above satellite
View from above satellite

Ground track
Ground track

The orbit data is extracted from the following two-line orbital elements,

1 25135U 98002B   14113.19334678  .00000251  00000-0  10910-3 0  1563
2 25135 026.8859 131.8479 0356480 234.4971 198.0959 13.62242759811445
Epoch (UTC): 23 April 2014 04:38:25
Eccentricity: 0.0356480
inclination: 26.8859°
perigee height: 763 km
apogee height: 1291 km
right ascension of ascending node: 131.8479°
argument of perigee: 234.4971°
revolutions per day: 13.62242759
mean anomaly at epoch: 198.0959°
orbit number at epoch: 81144

The dashed part of the orbit path shows where the satellite is in the earth's shadow,  

DLR